Theta_e
346 343 342 344 345 346 347 345 347 346 349 341 342 344 344 348 346 342 340 339 340 340 343 344 344 341 339 341 343 344 343 343 341 341 338 339 340 340 340 339 339 341 344
346 343 344 342 337 342 346 347 350 348 347 346 342 342 344 345 344 344 342 342 347 341 341 340 339 341 341 341 342 342 342 342 341 339 340 340 338 338 340 339 337 336 337
344 345 344 336 341 345 344 350 350 348 338 345 337 340 342 345 345 344 345 341 346 341 341 342 340 342 343 342 342 343 343 343 343 341 340 341 338 337 335 333 335 337 337
339 337 340 344 344 348 349 350 349 340 347 342 340 341 339 336 335 340 347 344 345 341 340 345 340 340 343 343 343 344 345 344 344 343 340 341 339 337 334 334 335 335 334
336 339 343 346 346 347 352 342 350 350 349 348 342 345 344 341 344 345 346 346 347 344 340 345 345 342 343 343 343 343 344 345 345 344 342 341 341 338 334 331 335 338 338
344 336 344 347 346 346 349 351 349 349 352 348 346 345 343 340 341 345 343 347 348 348 343 342 339 344 344 345 343 343 343 343 343 345 344 341 341 340 337 332 327 331 333
349 348 350 351 348 348 346 346 347 349 352 349 347 346 339 341 345 347 347 347 349 348 346 346 341 341 344 344 342 342 342 343 343 344 344 342 341 341 339 336 331 327 327
346 348 343 350 349 348 349 349 346 350 352 352 348 346 340 342 345 349 347 348 346 345 349 349 348 346 347 346 343 343 343 343 343 345 345 344 343 342 341 339 335 329 325
348 348 344 349 349 350 346 350 352 353 350 351 353 347 342 343 346 343 344 345 347 346 347 345 349 348 349 349 347 342 342 343 343 342 344 346 345 343 342 340 339 335 325
347 348 348 351 349 349 351 351 351 353 352 352 350 351 350 351 342 343 346 344 345 347 349 350 344 350 350 348 348 342 342 343 341 340 341 345 346 346 344 342 341 339 333
348 349 349 349 352 346 348 350 355 352 354 352 350 353 351 351 353 347 347 346 347 347 347 349 340 348 350 350 348 343 343 343 340 340 341 341 342 346 348 347 343 341 338
351 349 351 352 352 344 350 351 353 354 351 350 352 352 352 352 351 346 345 347 347 350 348 346 340 351 349 350 345 343 343 342 340 339 339 341 341 342 342 346 348 344 341
351 349 352 352 349 350 352 350 352 354 354 352 353 352 352 352 351 349 349 349 347 348 349 350 346 350 350 349 345 343 344 342 341 338 338 339 339 340 342 342 346 349 345
349 350 351 351 350 349 352 351 353 352 352 352 354 352 351 352 352 352 348 349 344 346 349 350 351 344 347 349 347 345 344 343 340 339 338 339 339 340 342 342 344 347 348
349 350 350 352 351 349 348 351 351 352 353 353 353 353 353 352 354 352 351 351 347 345 345 349 349 342 346 349 347 346 346 344 340 339 338 339 338 339 342 346 348 347 348
349 348 350 351 349 349 352 351 352 352 352 352 353 353 352 352 350 351 352 351 351 349 344 349 349 349 343 342 348 344 348 346 340 338 338 337 337 337 339 343 344 344 344
349 347 348 350 349 349 351 353 354 349 352 351 351 353 352 352 352 353 351 352 352 351 349 351 351 351 349 348 350 349 349 346 341 338 337 336 335 334 335 337 340 341 342
350 348 348 349 348 348 351 354 352 352 350 348 350 352 353 353 352 353 352 352 351 352 351 349 350 349 350 351 350 349 348 342 341 339 335 334 333 331 331 330 330 331 331
349 349 348 348 342 348 350 352 353 352 350 351 353 351 352 352 351 351 352 351 350 351 350 349 349 349 349 350 349 347 343 342 339 336 333 331 331 331 330 328 327 327 327
349 348 349 347 342 339 348 352 351 351 351 351 353 353 354 353 353 351 351 352 349 350 349 349 348 349 349 349 349 345 338 335 331 327 328 328 328 326 326 326 325 324 322
351 351 351 347 348 348 348 351 351 353 351 352 352 351 355 353 353 352 350 352 348 349 350 350 350 349 349 348 347 343 337 331 327 327 327 326 325 323 323 319 319 314 313
351 351 350 351 350 353 353 351 349 352 353 354 353 352 354 354 352 352 353 352 349 347 347 348 348 347 347 346 346 347 337 330 330 327 328 326 323 324 326 324 320 318 320
353 352 351 352 352 350 352 352 352 352 352 351 354 353 353 354 353 351 350 349 347 345 345 345 345 346 345 344 343 344 340 337 335 331 327 325 325 326 324 322 320 321 321
346 348 347 352 352 352 351 352 352 352 352 354 354 353 352 352 353 351 349 345 344 343 343 343 344 342 342 339 340 340 340 337 334 330 328 327 325 324 323 323 321 320 318
342 350 351 351 352 352 354 354 354 354 354 353 352 353 352 352 351 352 350 345 343 341 341 339 337 335 333 334 338 336 334 333 331 330 330 328 325 324 322 320 318 318 318
349 350 350 352 352 353 353 353 352 351 351 352 352 352 352 350 350 351 351 346 342 341 337 332 327 331 331 333 337 336 335 333 330 329 330 326 325 324 324 320 317 317 317
Wind_Speed
5 6 5 5 5 5 8 9 14 12 15 6 7 4 4 17 17 15 14 13 7 7 6 5 6 8 8 9 9 8 6 5 4 4 4 4 5 5 5 7 9 10 11
8 9 10 6 5 4 5 9 13 7 7 7 3 7 10 2 8 8 14 15 10 5 7 5 8 8 8 8 7 6 5 4 5 4 4 3 3 3 5 5 6 8 11
8 10 8 6 5 6 7 11 6 5 4 4 4 6 4 6 6 10 17 15 11 7 8 7 8 8 7 7 5 4 2 2 2 2 2 2 2 2 2 3 4 5 8
8 9 5 3 2 3 9 7 5 6 4 2 3 5 4 3 13 17 7 9 9 8 8 7 7 6 6 5 4 2 1 2 2 2 1 1 1 1 1 3 4 6 6
9 8 4 3 3 5 9 4 4 4 4 3 5 4 2 2 2 5 3 7 8 8 6 6 5 5 4 3 3 1 3 3 4 4 3 3 1 1 1 3 4 6 8
7 6 2 3 3 3 2 5 6 5 7 4 5 3 4 6 2 1 5 2 5 8 7 5 5 5 3 2 2 0 3 4 2 3 3 3 3 2 2 3 4 6 6
12 9 4 4 4 2 1 5 6 5 3 3 3 7 7 1 5 4 8 7 8 10 9 5 3 5 4 2 2 1 1 2 2 4 4 4 5 4 4 4 5 5 6
11 9 7 5 3 1 2 3 4 4 3 5 2 2 3 3 6 9 10 8 9 8 13 5 4 6 5 3 2 2 1 1 1 2 3 4 5 5 5 5 5 5 6
15 12 10 8 6 7 6 4 3 3 3 4 6 1 1 1 1 4 6 7 15 11 11 10 8 7 5 3 2 1 1 1 1 2 3 4 5 6 6 6 5 5 5
16 13 12 9 8 10 6 5 4 4 3 3 4 2 4 4 1 3 1 7 5 9 7 9 5 8 5 3 2 2 1 1 2 1 1 5 6 5 5 6 6 5 4
19 15 13 12 11 9 10 7 5 4 2 0 3 4 4 7 1 2 1 3 3 9 2 8 7 7 7 5 4 4 2 0 1 2 1 2 5 6 7 8 7 6 5
20 18 17 15 12 10 14 11 7 4 4 2 2 4 7 4 2 2 1 2 2 6 7 1 10 8 6 5 5 5 2 1 0 2 2 1 1 4 7 9 10 7 6
23 19 19 17 13 13 13 13 10 8 5 3 2 2 2 1 3 2 3 0 3 4 4 7 10 6 9 4 6 5 4 3 1 1 2 2 2 1 3 9 11 11 7
20 18 19 18 14 14 13 12 10 8 5 6 4 4 2 1 2 3 2 3 2 5 4 5 8 5 12 8 12 8 6 4 3 1 1 2 4 5 5 5 10 7 9
21 20 21 20 16 14 14 14 11 8 7 5 6 6 6 4 2 4 2 3 5 1 1 8 7 5 8 7 8 9 8 6 4 2 1 1 3 4 5 7 6 5 3
16 21 22 24 22 18 18 16 13 10 9 8 8 6 5 4 3 2 1 2 2 4 2 6 7 7 6 7 12 8 9 7 6 2 1 1 2 2 3 4 5 5 3
24 20 22 27 25 22 20 20 18 14 13 10 12 9 8 6 5 3 1 2 3 5 3 1 1 1 6 10 12 12 12 9 7 4 2 1 1 2 3 3 2 2 2
22 24 21 24 23 22 20 21 21 17 14 15 12 11 11 10 5 6 4 4 2 6 6 6 5 3 4 8 13 14 13 10 7 5 3 2 2 2 3 3 2 2 2
26 26 23 22 25 23 20 20 20 19 15 15 11 15 14 11 11 8 6 5 5 5 4 4 4 3 4 7 10 12 12 10 8 7 5 4 2 1 1 1 2 2 3
30 30 27 23 25 27 23 22 20 18 15 17 16 15 13 15 13 13 11 9 7 7 6 5 5 6 5 4 13 18 13 11 10 7 8 7 5 4 6 4 4 4 5
34 32 30 27 26 25 26 24 22 19 18 18 17 15 12 14 13 13 14 14 10 9 8 7 6 5 6 11 12 15 14 15 12 11 10 6 4 5 5 5 5 5 5
32 35 34 33 30 30 30 26 24 23 22 22 20 15 15 13 13 14 13 15 13 12 11 9 9 8 9 9 10 14 19 12 5 13 12 9 5 2 1 3 5 4 2
29 34 37 35 36 33 31 28 27 27 26 27 25 21 18 16 14 13 14 13 12 11 10 10 11 10 10 12 11 15 18 16 10 12 14 9 9 4 2 3 2 2 2
29 33 32 35 35 35 33 32 29 28 28 30 29 26 22 20 18 16 13 13 11 8 7 5 6 6 6 8 10 10 13 11 7 12 11 4 7 3 4 3 4 4 6
28 33 34 36 35 34 34 33 29 30 31 32 27 29 27 25 22 20 17 16 13 10 7 5 6 6 6 8 9 13 16 17 5 5 9 4 7 6 5 4 6 7 8
19 21 28 30 30 32 33 32 30 31 34 34 32 28 29 28 25 24 23 22 17 13 12 11 12 12 10 7 10 10 12 10 8 4 8 4 10 7 4 5 8 7 8
Wind_Direction
239 223 229 247 262 250 298 297 315 313 337 355 358 349 281 247 255 264 230 236 235 246 229 230 183 156 141 141 138 149 159 176 161 181 198 172 185 194 207 213 217 217 217
194 216 218 219 233 203 270 340 7 24 17 36 64 94 65 157 213 235 258 256 280 207 208 155 151 139 138 136 136 150 162 171 173 176 185 180 179 188 201 215 224 220 219
208 202 211 218 203 170 314 338 352 303 358 15 167 159 175 72 201 261 321 256 241 181 176 157 154 136 138 129 129 134 146 166 201 180 178 176 159 159 190 199 206 201 210
207 185 175 226 186 21 345 12 63 153 68 294 195 115 152 275 238 278 295 261 208 197 163 169 165 145 138 122 110 80 330 285 268 246 213 199 129 99 146 181 197 205 212
163 159 128 94 98 27 31 49 8 47 354 307 289 344 49 168 276 303 287 282 225 216 172 173 184 168 157 154 136 25 310 283 246 230 216 205 165 125 148 193 184 202 223
183 173 225 299 299 82 25 14 343 11 349 311 325 334 10 129 272 55 225 285 244 199 194 189 176 186 195 200 176 40 343 338 275 239 232 221 205 203 187 184 201 213 222
197 207 239 264 284 18 330 342 327 333 31 358 309 320 49 46 131 102 162 182 204 200 199 202 205 196 193 175 232 190 30 346 223 229 219 219 214 210 205 202 209 214 216
217 222 226 232 268 354 304 329 327 313 347 9 333 342 0 110 76 109 130 162 190 246 219 203 217 184 180 179 194 203 174 81 285 244 234 216 212 211 216 213 216 221 218
213 222 227 234 263 278 270 274 305 306 349 311 316 243 68 293 338 198 212 219 241 272 209 222 227 195 178 199 181 247 153 354 311 214 204 210 216 211 214 219 222 224 222
217 224 222 225 246 256 254 269 263 254 215 359 76 356 31 330 155 345 141 224 231 214 230 190 222 207 209 207 217 266 215 6 358 9 166 181 200 208 212 220 219 219 217
218 219 215 227 236 255 233 240 215 222 234 79 52 27 25 47 147 149 300 16 201 203 246 219 247 215 216 221 234 238 216 306 81 49 83 166 197 205 210 220 218 217 215
219 224 218 220 233 233 206 212 218 229 239 299 69 72 62 35 17 119 143 268 55 46 139 186 177 192 210 240 236 237 223 228 43 82 100 117 189 214 217 212 214 209 210
221 226 222 219 232 214 212 210 215 227 229 261 310 49 69 45 0 210 166 196 90 105 90 108 175 224 208 221 241 247 222 220 227 47 46 41 35 355 256 214 204 209 209
228 233 232 227 231 219 221 211 207 222 216 234 271 290 305 244 294 295 190 144 34 55 88 154 157 192 237 294 253 239 225 223 228 229 3 4 9 17 42 137 180 197 212
231 230 231 231 226 221 226 222 216 218 221 213 250 272 279 251 288 308 225 188 148 140 234 207 210 250 198 244 218 223 225 230 223 202 131 40 30 40 74 113 146 161 171
244 225 217 222 221 217 224 230 225 223 224 231 246 261 247 265 250 39 84 188 149 146 162 207 237 271 213 232 242 233 231 233 222 188 84 58 53 54 70 104 138 149 179
243 226 226 222 219 222 228 239 231 230 236 240 237 236 264 263 266 242 199 144 198 197 156 155 19 173 231 243 220 231 232 228 208 194 178 124 61 54 68 79 98 140 173
224 222 221 213 224 221 230 233 226 226 237 236 234 244 248 251 257 213 207 140 149 205 185 191 186 182 210 208 216 220 217 209 206 207 193 168 136 94 65 65 76 87 109
231 231 232 232 226 221 229 227 229 230 242 239 241 245 249 244 236 220 213 203 199 176 168 170 180 172 144 186 183 186 200 198 200 192 181 174 171 161 126 105 91 93 89
235 234 233 239 235 231 231 236 237 236 244 240 240 244 255 242 245 236 225 222 210 203 194 183 176 170 169 157 191 184 176 180 158 158 151 137 129 117 97 89 90 80 90
234 238 238 238 238 238 240 238 242 243 246 246 246 241 249 241 249 237 231 220 211 207 192 183 177 174 178 173 180 184 178 171 169 172 161 144 136 105 87 90 102 103 95
236 236 238 238 238 239 239 242 245 244 245 246 249 244 245 247 258 246 230 224 224 222 219 208 199 197 196 188 172 184 165 151 175 199 190 187 180 153 23 148 140 119 107
242 238 241 242 238 240 241 243 243 246 249 244 243 242 241 243 248 236 235 234 224 220 228 226 218 213 197 198 189 183 186 187 197 192 192 186 196 220 174 153 127 89 109
257 248 240 245 246 246 244 243 243 243 247 250 248 244 240 236 236 234 223 200 196 192 185 191 204 219 216 201 192 199 196 176 145 172 189 180 193 200 181 151 121 128 128
262 258 247 246 246 249 246 246 243 242 245 249 255 243 238 231 233 229 222 201 187 177 175 188 185 172 172 183 183 166 150 141 121 168 191 183 171 159 157 143 141 124 129
262 260 253 244 247 249 252 252 248 245 245 247 246 241 226 226 226 222 217 203 188 186 177 161 147 140 133 139 182 187 179 169 137 149 183 170 162 155 142 157 161 146 130